Location: Unspecified
(0.0000°N, 0.0000°E)
Time: 03:01:42
(UTC+00:00)

Explorer 11/Cluster Stage 4 - Pass Details

Date: 21 December 2018
Orbit: 467 x 1260 km, 28.8° (Epoch: 19 March)

Event Time Altitude Azimuth Distance (km) Brightness Sun altitude
Rises 18:58:20 0° 244° (WSW) 4,170 12.3 -13.8°
Reaches altitude 10° 19:01:15 10° 246° (WSW) 3,228 11.2 -14.4°
Maximum altitude 19:09:31 71° 329° (NNW) 1,294 7.6 -16.3°
Enters shadow 19:14:41 24° 48° (NE) 2,235 8.3 -17.5°
